{"data":{"norad_id":57746,"intl_designator":"2023-131Q","name":"STARLINK-30350","alt_names":[],"object_type":"PAYLOAD","status":"ACTIVE","operator":null,"country":"US","launch_date":"2023-09-01","launch_site_code":"AFETR","launch_vehicle":null,"mission":null,"orbit_class":"UNKNOWN","rcs_meters":null,"size_class":null,"mass_kg":null,"dimensions":null,"purposes":["comms"],"wikipedia_slug":null,"has_3d_model":false,"image_url":null,"decayed_at":null,"tle_current":{"epoch":"2026-09-20T23:34:47.246592Z","epoch_age_seconds":89603,"freshness":"FRESH","line1":"1 57746U 23131Q   26263.98249128 -.00001819  00000+0 -56571-4 0  9999","line2":"2 57746  43.0047 146.1526 0000977 285.8413  74.2331 15.27584733169829","mean_motion":15.27584733,"eccentricity":9.77e-5,"inclination_deg":43.0047,"raan_deg":146.1526,"arg_perigee_deg":285.8413,"mean_anomaly_deg":74.2331,"bstar":-5.6571e-5,"rev_number":16982,"period_min":94.266456641787,"perigee_km":482.36458727461,"apogee_km":483.70526026851,"semimajor_km":6861.1719237716,"source":"CELESTRAK","updated_at":"2026-09-21T09:00:33.681382Z"}}}